Tracking 17155 objects as of 29-July-2015
HD Live streaming from Space Station

KMS 3-2

Track KMS 3-2 now!
10-day predictions
KMS 3-2 is classified as:


NORAD ID: 39026
Int'l Code: 2012-072A
Perigee: 478.4 km
Apogee: 544.1 km
Inclination: 97.3 °
Period: 94.7 minutes
Semi major axis: 6882 km
RCS: 0.4897 m2 (medium)
Launch date: December 12, 2012
Source: North Korea (NKOR)

KWANGMYONGSONG 3 is a North Korean Earth observation satellite, which according to the DPRK is designed for weather forecast purposes, and whose launch is widely portrayed in the West to be a veiled ballistic missile test.
Your satellite tracking list
Your tracking list is empty





NASA's NSSDC Master Catalog

Two Line Element Set (TLE):
1 39026U 12072A   15209.87649036  .00003717  00000-0  16773-3 0  9997
2 39026 097.2812 240.0180 0047663 089.3927 271.2769 15.20572728145047

Source of the keplerian elements: AFSPC

N2YO: 306